Location: Little Ridge
(33.0629°N, 96.4547°W)
Time: 01:39:37
(UTC+00:00)

Tiangong - Visible Passes

Search period start: 29 November 2022 00:00
Search period end: 09 December 2022 00:00
Orbit: 386 x 393 km, 41.5° (Epoch: 28 November)

Date Brightness Start Highest point End Pass type
(mag) Time Alt. Az. Time Alt. Az. Time Alt. Az.
29 Nov -1.1 01:04:49 10° WSW 01:07:18 44° WNW 01:07:18 44° WNW visible
30 Nov -2.2 00:06:41 10° WSW 00:09:51 81° SSE 00:12:05 18° ENE visible
30 Nov 1.4 01:44:23 10° WNW 01:44:24 10° WNW 01:44:24 10° WNW visible
01 Dec -0.9 00:45:51 10° W 00:48:46 32° NNW 00:49:07 31° N visible
01 Dec -1.5 23:47:26 10° W 23:50:31 50° NNW 23:53:38 10° NE visible
02 Dec 0.9 01:25:33 10° NW 01:26:03 13° NW 01:26:03 13° NW visible
03 Dec -0.4 00:26:55 10° WNW 00:29:32 23° NNW 00:30:38 19° NNE visible
04 Dec 0.5 01:06:26 10° NW 01:07:28 15° NNW 01:07:28 15° NNW visible
05 Dec -0.1 00:07:51 10° NW 00:10:12 18° N 00:11:59 13° NNE visible
06 Dec 0.0 00:46:59 10° NW 00:48:47 18° N 00:48:47 18° N visible
06 Dec -0.1 23:48:31 10° NW 23:50:45 17° N 23:52:59 10° NE visible
07 Dec 1.0 01:25:26 10° NW 01:25:35 11° NW 01:25:35 11° NW visible
08 Dec -0.6 00:27:10 10° NW 00:29:45 22° NNE 00:30:08 21° NNE visible
